Home > Weather > MD of Lunenburg > Past weeks

Flag for Canada Past Weather in MD of Lunenburg, Nova Scotia, Canada — Yesterday and Last 2 Weeks

Now
68 °F

Partly sunny.


Feels Like: 68 °F
Forecast: N/A
Wind: 9 mph from South

Location: Shearwater

Current Time: Jul 28, 2016 at 7:23:57 PM

Latest Report: Jul 28, 2016 at 7:00 PM


Visibility: 15 mi

Pressure: 29.92 "Hg

Humidity: 88%

Dew Point: 64 °F

Location of MD of LunenburgLocation

Past Weather in MD of Lunenburg — Graph

°F

MD of Lunenburg Temperature Yesterday

Maximum temperature yesterday: 77 °F (at 3:00 PM)
Minimum temperature yesterday: 66 °F (at 9:00 AM)
Average temperature yesterday: 73 °F

High & Low Weather Summary for the Past Weeks

 TemperatureHumidityPressure
High84 °F (Jul 21, 3:00 PM)100% (Jul 15, 7:00 AM)30.11 "Hg (Jul 15, 7:00 AM)
Low61 °F (Jul 14, 7:00 AM)37% (Jul 21, 3:00 PM)29.75 "Hg (Jul 26, 7:00 PM)
Average70 °F81%29.91 "Hg
* Reported Jul 14 7:00 AM — Jul 28 6:00 PM, MD of Lunenburg, Weather by CustomWeather, © 2016

Note: Actual official high and low records may vary slightly from our data, if they occured in-between our weather recording intervals... More about our weather records

Advertising

MD of Lunenburg Weather History for the Previous 24 Hours

Scroll right to see more
 ConditionsComfort  
Time TempWeatherWind HumidityBarometerVisibility
6:00 PM
Thu, Jul 28
72 °FPartly sunny.8 mph78%29.93 "Hg15 mi
5:00 PM72 °FPartly sunny.9 mph83%29.93 "Hg15 mi
4:00 PM75 °FPartly sunny.13 mph74%29.93 "Hg15 mi
3:00 PM75 °FPartly sunny.13 mph74%29.94 "Hg15 mi
2:00 PM75 °FOvercast.13 mph74%29.94 "Hg15 mi
1:00 PM73 °FOvercast.8 mph78%29.95 "Hg15 mi
12:00 PM73 °FOvercast.8 mph78%29.94 "Hg15 mi
11:00 AM70 °FHigh level clouds.6 mph88%29.95 "Hg10 mi
10:00 AM72 °FFog.2 mph88%29.94 "Hg8 mi
9:00 AM66 °FFog.No wind100%29.95 "Hg1 mi
12:00 AM64 °FPassing clouds.2 mph100%29.90 "Hg15 mi
11:00 PM
Wed, Jul 27
68 °FPassing clouds.No wind94%29.90 "Hg15 mi
10:00 PM70 °FPassing clouds.5 mph88%29.90 "Hg15 mi
9:00 PM70 °FPartly sunny.5 mph88%29.90 "Hg15 mi
8:00 PM73 °FPartly sunny.7 mph83%29.89 "Hg15 mi
7:00 PM75 °FPartly sunny.9 mph78%29.88 "Hg15 mi
Weather by CustomWeather, © 2016

See weather overviewHow to use our weather pages